Date String (YYYY-MM-DD hh:mm:ss) UTC,Instrument flags,absolute air pressure of the measurement (hPa),sample flow rate (lpm),inlet stack bypass flow (lpm),air temperature of the measurement (°C),ambient temperature measured by the external sensor (°C),aerosol sample conditioner tube jacket temperature (°C),OPC LED temperature (°C),internal box temperature (°C),relative humidity of the measurement (%),span deviation,mass concentration of particles derived from Lorenz-Mie calculation of OPC scattering (μg/m³),mass concentration of particles derived from Lorenz-Mie calculation of OPC scattering (μg/m³),mass concentration of particles derived from Lorenz-Mie calculation of OPC scattering (μg/m³)
DateTimeUTC,F1_M11,P_M11,Q1_M11,Q2_M11,T1_M11,T2_M11,T3_M11,T4_M11,T5_M11,U1_M11,ZSPAN_M11,X2_M11,X0_M11,X1_M11
2024-02-20 00:00:00,SystemResetWarning,0827.4,5.00,000.00,023.9,023.4,000.0,032.2,025.7,11.4,0000.0,0001.85,0005.98,0001.37
2024-02-20 00:01:00,SystemResetWarning,0827.4,5.00,000.00,023.9,023.4,000.0,032.2,025.7,11.4,0000.0,0001.84,0006.24,0001.37
2024-02-20 00:02:00,SystemResetWarning,0827.4,4.99,000.00,023.9,023.5,000.0,032.2,025.7,11.5,0000.0,0001.87,0007.00,0001.37
2024-02-20 00:03:00,SystemResetWarning,0827.3,5.00,000.00,023.9,023.5,000.0,032.2,025.8,11.5,0000.0,0001.95,0007.99,0001.39
2024-02-20 00:04:00,SystemResetWarning,0827.5,5.00,000.00,024.0,023.5,000.0,032.3,025.7,11.4,0000.0,0002.01,0008.48,0001.41
2024-02-20 00:05:00,SystemResetWarning,0827.5,5.00,000.00,024.0,023.5,000.0,032.3,025.8,11.2,0000.0,0002.03,0009.17,0001.40
2024-02-20 00:06:00,SystemResetWarning,0827.6,4.99,000.00,024.0,023.5,000.0,032.3,025.9,11.3,0000.0,0002.01,0009.38,0001.40
2024-02-20 00:07:00,SystemResetWarning,0827.5,5.01,000.00,024.0,023.5,000.0,032.3,025.9,11.4,0000.0,0002.05,0009.63,0001.41
2024-02-20 00:08:00,SystemResetWarning,0827.5,5.01,000.00,024.0,023.5,000.0,032.3,025.9,11.3,0000.0,0002.13,0009.67,0001.43
2024-02-20 00:09:00,SystemResetWarning,0827.7,4.99,000.00,024.0,023.5,000.0,032.3,025.9,11.2,0000.0,0002.16,0009.71,0001.44
2024-02-20 00:10:00,SystemResetWarning,0827.8,4.99,000.00,024.0,023.5,000.0,032.3,025.9,11.3,0000.0,0002.16,0009.77,0001.42
2024-02-20 00:11:00,SystemResetWarning,0827.8,5.00,000.00,024.0,023.5,000.0,032.3,025.9,11.3,0000.0,0002.21,0010.20,0001.42
2024-02-20 00:12:00,SystemResetWarning,0827.6,5.00,000.00,024.0,023.5,000.0,032.4,025.9,11.3,0000.0,0002.28,0010.75,0001.43
2024-02-20 00:13:00,SystemResetWarning,0827.8,5.00,000.00,024.1,023.5,000.0,032.4,025.9,11.2,0000.0,0002.31,0012.58,0001.42
2024-02-20 00:14:00,SystemResetWarning,0827.8,5.00,000.00,024.1,023.5,000.0,032.4,025.9,11.4,0000.0,0002.26,0012.05,0001.41
2024-02-20 00:15:00,SystemResetWarning,0827.5,5.00,000.00,024.1,023.5,000.0,032.4,025.9,11.5,0000.0,0002.23,0011.65,0001.40
2024-02-20 00:16:00,SystemResetWarning,0827.5,5.01,000.00,024.1,023.5,000.0,032.4,025.9,11.2,0000.0,0002.19,0011.29,0001.42
2024-02-20 00:17:00,SystemResetWarning,0827.5,5.00,000.00,024.0,023.5,000.0,032.4,025.9,09.2,0000.0,0002.21,0010.93,0001.41
2024-02-20 00:18:00,SystemResetWarning,0827.5,5.00,000.00,024.0,023.5,000.0,032.4,025.8,08.6,0000.0,0002.23,0010.95,0001.40
2024-02-20 00:19:00,SystemResetWarning,0827.5,5.01,000.00,024.0,023.5,000.0,032.4,025.8,08.9,0000.0,0002.26,0011.02,0001.39
2024-02-20 00:20:00,SystemResetWarning,0827.5,4.99,000.00,024.0,023.5,000.0,032.4,025.8,08.5,0000.0,0002.25,0010.65,0001.40
2024-02-20 00:21:00,SystemResetWarning,0827.5,4.99,000.00,024.0,023.5,000.0,032.4,025.8,07.8,0000.0,0002.28,0010.72,0001.41
2024-02-20 00:22:00,SystemResetWarning,0827.6,5.01,000.00,024.0,023.5,000.0,032.4,025.8,08.0,0000.0,0002.27,0010.32,0001.42
2024-02-20 00:23:00,SystemResetWarning,0827.7,5.00,000.00,024.0,023.5,000.0,032.4,025.9,08.1,0000.0,0002.25,0009.44,0001.42
2024-02-20 00:24:00,SystemResetWarning,0827.5,4.99,000.00,024.1,023.5,000.0,032.4,025.9,07.6,0000.0,0002.21,0007.69,0001.42
2024-02-20 00:25:00,SystemResetWarning,0827.5,5.00,000.00,024.1,023.5,000.0,032.5,025.9,07.3,0000.0,0002.21,0007.58,0001.42
2024-02-20 00:26:00,SystemResetWarning,0827.5,5.00,000.00,024.1,023.5,000.0,032.4,025.9,07.8,0000.0,0002.21,0007.57,0001.40
2024-02-20 00:27:00,SystemResetWarning,0827.5,5.00,000.00,024.1,023.6,000.0,032.4,025.9,08.2,0000.0,0002.18,0007.18,0001.36
2024-02-20 00:28:00,SystemResetWarning,0827.4,5.01,000.00,024.1,023.6,000.0,032.5,025.9,08.4,0000.0,0002.12,0006.97,0001.32
2024-02-20 00:29:00,SystemResetWarning,0827.6,5.00,000.00,024.1,023.6,000.0,032.5,025.9,08.2,0000.0,0002.01,0006.37,0001.28
2024-02-20 00:30:00,SystemResetWarning,0827.8,5.00,000.00,024.1,023.6,000.0,032.5,025.9,08.0,0000.0,0001.83,0005.52,0001.23
2024-02-20 00:31:00,SystemResetWarning,0827.8,5.00,000.00,024.1,023.6,000.0,032.5,025.9,07.4,0000.0,0001.73,0005.19,0001.17
2024-02-20 00:32:00,SystemResetWarning,0827.4,5.00,000.00,024.1,023.6,000.0,032.5,026.0,07.7,0000.0,0001.64,0004.82,0001.11
2024-02-20 00:33:00,SystemResetWarning,0827.5,5.00,000.00,024.1,023.6,000.0,032.5,026.0,07.7,0000.0,0001.50,0004.11,0001.04
2024-02-20 00:34:00,SystemResetWarning,0827.4,5.00,000.00,024.1,023.6,000.0,032.5,026.0,07.4,0000.0,0001.34,0003.72,0000.96
2024-02-20 00:35:00,SystemResetWarning,0827.4,5.00,000.00,024.1,023.6,000.0,032.5,026.0,07.7,0000.0,0001.22,0002.67,0000.91
2024-02-20 00:36:00,SystemResetWarning,0827.7,5.00,000.00,024.2,023.6,000.0,032.5,026.0,07.9,0000.0,0001.14,0002.07,0000.85
2024-02-20 00:37:00,SystemResetWarning,0827.7,5.00,000.00,024.2,023.6,000.0,032.5,026.0,07.9,0000.0,0001.08,0002.13,0000.81
2024-02-20 00:38:00,SystemResetWarning,0827.6,5.00,000.00,024.2,023.6,000.0,032.5,026.0,07.5,0000.0,0001.00,0001.91,0000.78
2024-02-20 00:39:00,SystemResetWarning,0827.5,5.00,000.00,024.2,023.6,000.0,032.5,026.0,07.4,0000.0,0000.94,0001.72,0000.74
2024-02-20 00:40:00,SystemResetWarning,0827.5,5.01,000.00,024.2,023.6,000.0,032.5,026.0,07.7,0000.0,0000.87,0001.61,0000.70
2024-02-20 00:41:00,SystemResetWarning,0827.5,4.99,000.00,024.2,023.6,000.0,032.5,026.0,07.7,0000.0,0000.86,0001.85,0000.69
2024-02-20 00:42:00,SystemResetWarning,0827.5,5.00,000.00,024.2,023.6,000.0,032.6,026.1,07.4,0000.0,0000.83,0002.44,0000.67
2024-02-20 00:43:00,SystemResetWarning,0827.6,5.01,000.00,024.2,023.6,000.0,032.6,026.1,07.5,0000.0,0000.81,0002.41,0000.65
2024-02-20 00:44:00,SystemResetWarning,0827.6,5.01,000.00,024.2,023.6,000.0,032.6,026.1,07.3,0000.0,0000.77,0002.34,0000.63
2024-02-20 00:45:00,SystemResetWarning,0827.6,5.00,000.00,024.2,023.6,000.0,032.6,026.1,07.1,0000.0,0000.77,0002.36,0000.63
2024-02-20 00:46:00,SystemResetWarning,0827.7,5.00,000.00,024.2,023.6,000.0,032.6,026.1,07.3,0000.0,0000.77,0002.34,0000.62
2024-02-20 00:47:00,SystemResetWarning,0827.7,5.00,000.00,024.2,023.7,000.0,032.6,026.1,07.7,0000.0,0000.74,0002.31,0000.60
2024-02-20 00:48:00,SystemResetWarning,0827.7,5.00,000.00,024.2,023.7,000.0,032.6,026.1,08.1,0000.0,0000.70,0002.00,0000.58
2024-02-20 00:49:00,SystemResetWarning,0827.7,5.00,000.00,024.2,023.6,000.0,032.6,026.0,08.6,0000.0,0000.70,0001.87,0000.57
2024-02-20 00:50:00,SystemResetWarning,0827.7,5.00,000.00,024.2,023.6,000.0,032.6,026.0,08.5,0000.0,0000.71,0002.03,0000.57
2024-02-20 00:51:00,SystemResetWarning,0827.7,5.00,000.00,024.2,023.6,000.0,032.6,026.0,08.6,0000.0,0000.72,0002.06,0000.57
2024-02-20 00:52:00,SystemResetWarning,0827.7,5.00,000.00,024.2,023.6,000.0,032.6,026.0,08.7,0000.0,0000.73,0002.00,0000.57
2024-02-20 00:53:00,SystemResetWarning,0827.7,5.00,000.00,024.2,023.6,000.0,032.6,026.0,08.7,0000.0,0000.73,0001.23,0000.56
2024-02-20 00:54:00,SystemResetWarning,0827.7,5.01,000.00,024.2,023.6,000.0,032.6,026.0,09.3,0000.0,0000.74,0001.27,0000.56
2024-02-20 00:55:00,SystemResetWarning,0827.7,5.00,000.00,024.2,023.6,000.0,032.6,026.0,10.1,0000.0,0000.74,0001.26,0000.56
2024-02-20 00:56:00,SystemResetWarning,0827.7,5.00,000.00,024.2,023.6,000.0,032.6,026.0,10.3,0000.0,0000.77,0001.70,0000.56
2024-02-20 00:57:00,SystemResetWarning,0827.7,4.99,000.00,024.2,023.6,000.0,032.6,026.0,10.2,0000.0,0000.86,0002.38,0000.59
2024-02-20 00:58:00,SystemResetWarning,0827.7,5.00,000.00,024.2,023.6,000.0,032.6,026.0,10.1,0000.0,0000.92,0002.57,0000.63
2024-02-20 00:59:00,SystemResetWarning,0827.7,5.00,000.00,024.2,023.6,000.0,032.6,026.0,09.7,0000.0,0000.99,0002.83,0000.67
